Regional Weather Roundup
Issued by NWS

Home | Current Version | Previous Version | Graphics & Text | Print | Product List | Glossary On
Versions: 1 2 3 4 5 6 7 8 9 10 11 12 13 14 15 16 17 18 19 20 21 22 23 24 25 26 27 28 29 30 31 32 33 34 35 36 37 38 39 40 41 42 43 44 45 46 47 48 49 50
515
ASUS43 KFSD 310010
RWRSD

WEATHER ROUNDUP FOR SOUTH DAKOTA
NATIONAL WEATHER SERVICE SIOUX FALLS SD
700 PM CDT SAT JUL 30 2016

NOTE: "FAIR" INDICATES FEW OR NO CLOUDS BELOW 12,000 FEET WITH NO
SIGNIFICANT WEATHER AND/OR OBSTRUCTIONS TO VISIBILITY.


SDZ001>005-009-010-012>017-310100-
NORTHWEST AND NORTH CENTRAL SOUTH DAKOTA

CITY           SKY/WX    TMP DP  RH WIND       PRES   REMARKS
BUFFALO          N/A     92  49  22 SE9       29.72F
FAITH            N/A     90  52  27 SE8G20    29.79F
MOBRIDGE       LGT RAIN  70  62  76 N52G68    29.80R SQUALL  VSB 1/2
$$

SDZ012>016-024>037-041>051-057-063-072>074-310100-
SOUTHWEST AND SOUTH CENTRAL SOUTH DAKOTA

CITY           SKY/WX    TMP DP  RH WIND       PRES   REMARKS
RAPID CTY ARPT CLOUDY    87  53  31 SE12      29.78F
PIERRE         SUNNY     89  61  38 SE22      29.78F
CUSTER         MOSUNNY   82  51  34 VRB7      29.97F
ELLSWORTH AFB  SUNNY     89  52  28 SE12        N/A
PHILIP         CLOUDY    86  63  45 S17G23    29.78F
PINE RIDGE     SUNNY     89  58  34 S20G26    29.83F
WINNER         FAIR      85  64  49 SE15      29.85F
$$

SDZ004>011-016>023-039-040-310100-
NORTHEAST SOUTH DAKOTA

CITY           SKY/WX    TMP DP  RH WIND       PRES   REMARKS
ABERDEEN       SUNNY     82  59  45 SE13      29.87F
WATERTOWN      SUNNY     79  59  50 S13       29.95S
BROOKINGS      SUNNY     77  60  55 SE12      29.95F
SISSETON         N/A     78  59  51 SE13      29.92S
$$

SDZ017-020-022-023-036>040-048>070-310100-
SOUTHEAST SOUTH DAKOTA

CITY           SKY/WX    TMP DP  RH WIND       PRES   REMARKS
SIOUX FALLS    MOSUNNY   79  58  48 SE14      29.94F
HURON          MOSUNNY   83  60  45 SE15G22   29.88F
CHAMBERLAIN    SUNNY     85  67  56 SE12G18   29.85F
MITCHELL       MOSUNNY   81  63  54 SE14      29.90F
YANKTON        SUNNY     81  61  50 SE12      29.91S
$$

ABBREVIATIONS USED IN REMARKS
   TC - TEMPERATURE IN CELSIUS
  WCI - WIND CHILL INDEX
   HX - HEAT INDEX
  VSB - VISIBILITY





USA.gov is the U.S. government's official web portal to all federal, state and local government web resources and services.